Weather History for Canton, GA

Change the Weather History Date:

Thursday, November 1, 2012

  Actual Average (KGVL) Record (KGVL)
Temperature  
Mean Temperature 48 °F 57 °F  
Max Temperature 59 °F 67 °F 82 °F (1935)
Min Temperature 37 °F 47 °F 26 °F (1939)
Degree Days  
Heating Degree Days 17 8  
Month to date heating degree days 8  
Since 1 July heating degree days 166  
Cooling Degree Days 0 1  
Month to date cooling degree days 1  
Year to date cooling degree days 1583  
Moisture  
Dew Point -0 °F    
Average Humidity 20    
Maximum Humidity 45    
Minimum Humidity 4    
Precipitation  
Precipitation 0.00 in 0.10 in 2.68 in (1932)
Month to date precipitation 0.10  
Year to date precipitation 45.11  
Sea Level Pressure  
Sea Level Pressure 29.94 in    
Wind  
Wind Speed 6 mph ()    
Max Wind Speed 10 mph    
Max Gust Speed 21 mph    
Visibility 10.0 miles    
Events      
T = Trace of Precipitation, MM = Missing Value Source: Averaged Metar Reports

Daily Weather History Graph

Daily Weather History Graph

Search for Another Location

Airport:

Trip Planner

Search our weather history database for the weather conditions in past years. The results will help you decide how hot, cold, wet, or windy it might be!

Date:

Astronomy

Nov. 01, 2012 Rise Set
Actual Time 7:58 AM EDT 6:43 PM EDT
Civil Twilight 7:32 AM EDT 7:09 PM EDT
Nautical Twilight 7:02 AM EDT 7:39 PM EDT
Astronomical Twilight 6:33 AM EDT 8:08 PM EDT
Moon 8:45 PM EDT (11/1) 10:24 AM EDT (11/1)
Length of Visible Light 11h 37m
Length of Day
10h 45m
Waning Gibbous, 93% of the Moon is Illuminated
Nov 1
Waning Gibbous
Nov 6
Last Quarter
Nov 13
New
Nov 20
First Quarter
Nov 28
Full

Hourly Weather History & Observations

Time (EDT) Temp. Windchill Dew Point Humidity Pressure Visibility Wind Dir Wind Speed Gust Speed Precip Events Conditions
12:15 AM 44.6 °F 40.7 °F 15.8 °F 31% 29.89 in 10.0 mi WNW 6.9 mph - N/A   Clear
12:35 AM 44.6 °F 39.7 °F 10.4 °F 25% 29.89 in 10.0 mi WNW 9.2 mph - N/A   Clear
12:55 AM 44.6 °F 41.4 °F 12.2 °F 27% 29.89 in 10.0 mi WNW 5.8 mph - N/A   Clear
1:15 AM 44.6 °F 40.2 °F 10.4 °F 25% 29.89 in 10.0 mi WNW 8.1 mph - N/A   Clear
1:35 AM 44.6 °F 40.7 °F 10.4 °F 25% 29.89 in 10.0 mi WNW 6.9 mph - N/A   Clear
1:55 AM 44.6 °F 40.7 °F 10.4 °F 25% 29.89 in 10.0 mi WNW 6.9 mph - N/A   Clear
2:15 AM 44.6 °F 41.4 °F 10.4 °F 25% 29.89 in 10.0 mi NW 5.8 mph - N/A   Clear
2:35 AM 44.6 °F 40.7 °F 10.4 °F 25% 29.89 in 10.0 mi NW 6.9 mph - N/A   Clear
2:55 AM 44.6 °F 40.2 °F 10.4 °F 25% 29.89 in 10.0 mi NW 8.1 mph - N/A   Clear
3:15 AM 44.6 °F 39.7 °F 10.4 °F 25% 29.89 in 10.0 mi NW 9.2 mph 16.1 mph N/A   Clear
3:35 AM 44.6 °F 40.7 °F 8.6 °F 23% 29.89 in 10.0 mi WNW 6.9 mph 16.1 mph N/A   Clear
3:55 AM 44.6 °F 39.7 °F 8.6 °F 23% 29.89 in 10.0 mi NW 9.2 mph 20.7 mph N/A   Clear
4:15 AM 42.8 °F 38.0 °F 10.4 °F 27% 29.89 in 10.0 mi NW 8.1 mph - N/A   Clear
4:35 AM 42.8 °F 38.6 °F 12.2 °F 29% 29.89 in 10.0 mi NW 6.9 mph 17.3 mph N/A   Clear
4:55 AM 42.8 °F 38.0 °F 14.0 °F 31% 29.89 in 10.0 mi NW 8.1 mph - N/A   Clear
5:15 AM 42.8 °F 37.5 °F 12.2 °F 29% 29.89 in 10.0 mi NW 9.2 mph - N/A   Clear
5:35 AM 42.8 °F 38.0 °F 12.2 °F 29% 29.89 in 10.0 mi NW 8.1 mph - N/A   Clear
5:55 AM 41.0 °F 35.8 °F 14.0 °F 33% 29.89 in 10.0 mi NW 8.1 mph - N/A   Clear
6:15 AM 41.0 °F 35.2 °F 14.0 °F 33% 29.90 in 10.0 mi NW 9.2 mph - N/A   Clear
6:35 AM 41.0 °F 36.4 °F 14.0 °F 33% 29.90 in 10.0 mi WNW 6.9 mph 17.3 mph N/A   Clear
6:55 AM 39.2 °F 33.6 °F 15.8 °F 39% 29.91 in 10.0 mi WNW 8.1 mph - N/A   Clear
7:35 AM 39.2 °F 33.0 °F 15.8 °F 39% 29.92 in 10.0 mi WNW 9.2 mph 16.1 mph N/A   Clear
7:55 AM 37.4 °F 30.8 °F 15.8 °F 41% 29.92 in 10.0 mi WNW 9.2 mph 16.1 mph N/A   Clear
8:15 AM 37.4 °F 31.4 °F 17.6 °F 45% 29.93 in 10.0 mi WNW 8.1 mph - N/A   Clear
8:35 AM 37.4 °F 30.3 °F 17.6 °F 45% 29.94 in 10.0 mi WNW 10.4 mph 18.4 mph N/A   Clear
8:55 AM 37.4 °F 30.8 °F 17.6 °F 45% 29.94 in 10.0 mi WNW 9.2 mph - N/A   Clear
9:15 AM 41.0 °F 35.2 °F 17.6 °F 39% 29.95 in 10.0 mi WNW 9.2 mph 16.1 mph N/A   Clear
9:35 AM 41.0 °F 35.8 °F 17.6 °F 39% 29.96 in 10.0 mi WNW 8.1 mph - N/A   Clear
9:55 AM 42.8 °F 37.0 °F 17.6 °F 36% 29.97 in 10.0 mi WNW 10.4 mph 19.6 mph N/A   Clear
10:15 AM 44.6 °F 39.2 °F 17.6 °F 34% 29.97 in 10.0 mi WNW 10.4 mph 17.3 mph N/A   Clear
10:35 AM 46.4 °F 41.9 °F 15.8 °F 29% 29.98 in 10.0 mi WNW 9.2 mph - N/A   Clear
10:55 AM 48.2 °F - 12.2 °F 24% 29.99 in 10.0 mi NW 9.2 mph - N/A   Clear
11:15 AM 50.0 °F - 8.6 °F 19% 29.99 in 10.0 mi WNW 6.9 mph - N/A   Clear
11:35 AM 50.0 °F - 3.2 °F 15% 29.99 in 10.0 mi NW 6.9 mph 17.3 mph N/A   Clear
11:55 AM 51.8 °F - -0.4 °F 12% 29.99 in 10.0 mi West 5.8 mph - N/A   Clear
12:15 PM 51.8 °F - -4.0 °F 10% 29.99 in 10.0 mi WNW 3.5 mph - N/A   Clear
12:35 PM 53.6 °F - -4.0 °F 9% 29.99 in 10.0 mi NW 8.1 mph - N/A   Clear
12:55 PM 53.6 °F - -4.0 °F 9% 29.98 in 10.0 mi WNW 6.9 mph 18.4 mph N/A   Clear
1:15 PM 55.4 °F - -11.2 °F 6% 29.98 in 10.0 mi NW 8.1 mph - N/A   Clear
1:35 PM 55.4 °F - -16.6 °F 5% 29.96 in 10.0 mi South 3.5 mph 17.3 mph N/A   Clear
1:55 PM 57.2 °F - -22.0 °F 4% 29.96 in 10.0 mi NW 10.4 mph 18.4 mph N/A   Clear
2:15 PM 59.0 °F - -22.0 °F 4% 29.95 in 10.0 mi WNW 8.1 mph - N/A   Clear
2:35 PM 59.0 °F - -22.0 °F 4% 29.94 in 10.0 mi NW 6.9 mph 19.6 mph N/A   Clear
2:55 PM 59.0 °F - -29.2 °F 4% 29.94 in 10.0 mi WNW 5.8 mph 19.6 mph N/A   Clear
3:15 PM 59.0 °F - -40.0 °F 4% 29.93 in 10.0 mi WNW 9.2 mph 16.1 mph N/A   Clear
3:35 PM 59.0 °F - -40.0 °F 4% 29.93 in 10.0 mi WNW 8.1 mph - N/A   Clear
3:55 PM - - - N/A% 29.93 in 10.0 mi WNW 8.1 mph - N/A   Clear
4:15 PM - - - N/A% 29.93 in 10.0 mi NW 10.4 mph 16.1 mph N/A   Clear
4:35 PM 59.0 °F - -36.4 °F 4% 29.92 in 10.0 mi WNW 10.4 mph 16.1 mph N/A   Clear
4:55 PM 59.0 °F - -40.0 °F 4% 29.93 in 10.0 mi WNW 6.9 mph 16.1 mph N/A   Clear
5:15 PM 59.0 °F - -41.8 °F 4% 29.93 in 10.0 mi WNW 5.8 mph - N/A   Clear
5:35 PM 59.0 °F - -36.4 °F 4% 29.94 in 10.0 mi NW 5.8 mph - N/A   Clear
5:55 PM 57.2 °F - -23.8 °F 4% 29.94 in 10.0 mi WNW 3.5 mph - N/A   Clear
6:15 PM 55.4 °F - -25.6 °F 4% 29.94 in 10.0 mi Calm Calm - N/A   Clear
6:35 PM 55.4 °F - -16.6 °F 5% 29.94 in 10.0 mi Calm Calm - N/A   Clear
6:55 PM 53.6 °F - -14.8 °F 6% 29.95 in 10.0 mi Calm Calm - N/A   Clear
7:15 PM 53.6 °F - -14.8 °F 6% 29.95 in 10.0 mi Calm Calm - N/A   Clear
7:35 PM 53.6 °F - -9.4 °F 7% 29.96 in 10.0 mi Calm Calm - N/A   Clear
7:55 PM 53.6 °F - -9.4 °F 7% 29.97 in 10.0 mi Calm Calm - N/A   Clear
8:15 PM 53.6 °F - -13.0 °F 6% 29.97 in 10.0 mi Calm Calm - N/A   Clear
8:35 PM 51.8 °F - -9.4 °F 8% 29.97 in 10.0 mi Calm Calm - N/A   Clear
8:55 PM 51.8 °F - -5.8 °F 9% 29.97 in 10.0 mi Calm Calm - N/A   Clear
9:15 PM 50.0 °F - -0.4 °F 13% 29.97 in 10.0 mi Calm Calm - N/A   Clear
9:35 PM 48.2 °F - 3.2 °F 16% 29.97 in 10.0 mi Calm Calm - N/A   Clear
9:55 PM 48.2 °F - 5.0 °F 17% 29.98 in 10.0 mi Calm Calm - N/A   Clear
10:15 PM 46.4 °F - 5.0 °F 18% 29.98 in 10.0 mi Calm Calm - N/A   Clear
10:35 PM 46.4 °F - 6.8 °F 20% 29.98 in 10.0 mi Calm Calm - N/A   Clear
10:55 PM 44.6 °F - 8.6 °F 23% 29.99 in 10.0 mi Calm Calm - N/A   Clear
11:15 PM 42.8 °F - 12.2 °F 29% 29.99 in 10.0 mi Calm Calm - N/A   Clear
11:35 PM 42.8 °F - 12.2 °F 29% 29.98 in 10.0 mi Calm Calm - N/A   Clear
11:55 PM 42.8 °F - 12.2 °F 29% 29.98 in 10.0 mi Calm Calm - N/A   Clear